• MPC Preparation (Info)

  • MPEC 2012-V37 : 2012 VR6

    The following Minor Planet Electronic Circular may be linked-to from your own Web pages, but must not otherwise be redistributed electronically.

    A form allowing access to any MPEC is at the bottom of this page.


    Read MPEC 2012-V36 Read MPEC 2012-V38


    M.P.E.C. 2012-V37                                Issued 2012 Nov. 6, 18:39 UT
    
         The Minor Planet Electronic Circulars contain information on unusual
             minor planets and routine data on comets.  They are published
       on behalf of Commission 20 of the International Astronomical Union by the
              Minor Planet Center, Smithsonian Astrophysical Observatory,
                              Cambridge, MA 02138, U.S.A.
    
                 Prepared using the Tamkin Foundation Computer Network
    
                                  MPC@CFA.HARVARD.EDU
                URL https://www.minorplanetcenter.net/    ISSN 1523-6714
    
                                       2012 VR6
    
    Observations:
         K12V06R* C2012 11 04.35595 02 37 13.22 +20 13 43.6          22.1 VrEV037G96
         K12V06R  C2012 11 04.36297 02 37 13.29 +20 13 32.3          21.8 VrEV037G96
         K12V06R  C2012 11 04.37000 02 37 13.36 +20 13 20.8          21.8 VrEV037G96
         K12V06R  C2012 11 04.37705 02 37 13.40 +20 13 09.6          21.8 VrEV037G96
         K12V06R  C2012 11 04.41939 02 37 13.72 +20 11 59.4          21.5 VrEV037G96
         K12V06R  C2012 11 04.42348 02 37 13.76 +20 11 52.1          20.9 VrEV037G96
         K12V06R  C2012 11 04.42553 02 37 13.78 +20 11 48.6          22.2 VrEV037G96
         K12V06R KC2012 11 05.39191 02 37 26.86 +19 45 26.1          21.3 RoEV037291
         K12V06R KC2012 11 05.39716 02 37 26.90 +19 45 17.3          21.2 RoEV037291
         K12V06R KC2012 11 05.40240 02 37 26.93 +19 45 09.0          21.3 RoEV037291
         K12V06R  C2012 11 06.35870 02 37 40.00 +19 18 54.2          22.4 VrEV037G96
         K12V06R  C2012 11 06.36469 02 37 40.04 +19 18 44.4          21.7 VrEV037G96
         K12V06R  C2012 11 06.37061 02 37 40.15 +19 18 34.3          20.8 VrEV037G96
         K12V06R  C2012 11 06.37655 02 37 40.15 +19 18 24.2          21.3 VrEV037G96
    
    Observer details:
    291 LPL/Spacewatch II.  Observer T. H. Bressi.  1.8-m f/2.7 reflector + CCD.
    G96 Mt. Lemmon Survey.  Observers A. R. Gibbs, R. E. Hill.  Measurers
        A. Boattini, E. J. Christensen, A. R. Gibbs, A. D. Grauer, R. E. Hill,
        J. A. Johnson, R. A. Kowalski, S. M. Larson, R. H. McNaught.  1.5-m
        reflector + CCD.
    
    Orbital elements:
    2012 VR6
    Epoch 2012 Sept. 30.0 TT = JDT 2456200.5                MPC
    M 349.66474              (2000.0)            P               Q
    n   0.24131668     Peri.  178.16163     +0.67714651     -0.71701587
    a   2.5551191      Node   229.17158     +0.67230734     +0.69421869
    e   0.4289713      Incl.   12.62704     +0.29912447     +0.06283833
    P   4.08           H   22.2           G   0.15           U   9
    Residuals in seconds of arc
    121104 G96  0.3-  0.3-    121104 G96  0.1+  0.2-    121106 G96  0.2-  0.0
    121104 G96  0.0   0.0     121104 G96  0.1+  0.3-    121106 G96  0.2-  0.2+
    121104 G96  0.3+  0.1+    121105 291  0.1-  0.1-    121106 G96  0.7+  0.0
    121104 G96  0.1+  0.5+    121105 291  0.1-  0.2-    121106 G96  0.1+  0.2-
    121104 G96  0.0   0.3+    121105 291  0.2-  0.2+
    
    Ephemeris:
    2012 VR6                 a,e,i = 2.56, 0.43, 13                  q = 1.4590
    Date    TT    R. A. (2000) Decl.     Delta      r     Elong.  Phase     V
    2012 10 07    02 25 42.6 +29 53 14   0.5558  1.4965   147.0    21.3    22.8
    ...
    2012 10 22    02 33 38.2 +25 45 52   0.4936  1.4719   161.6    12.3    22.2
    ...
    2012 10 30    02 35 59.2 +22 35 52   0.4757  1.4639   170.2     6.6    21.9
    ...
    2012 11 05    02 37 22.3 +19 56 16   0.4699  1.4604   175.6     3.0    21.7
    2012 11 06    02 37 35.6 +19 28 52   0.4696  1.4601   176.0     2.7    21.7
    2012 11 07    02 37 49.1 +19 01 21   0.4695  1.4597   176.1     2.6    21.7
    ...
    2012 11 13    02 39 17.1 +16 16 07   0.4729  1.4591   171.6     5.7    21.8
    ...
    2012 11 21    02 41 58.1 +12 47 11   0.4882  1.4615   162.9    11.4    22.2
    ...
    2012 12 06    02 50 47.9 +07 41 10   0.5469  1.4763   147.5    21.0    22.8
    
    A. U. Tomatic                (C) Copyright 2012 MPC           M.P.E.C. 2012-V37
    

    Read MPEC 2012-V36 Read MPEC 2012-V38


    MPEC number:

    Enter an MPEC number in one of the following forms:

    • 1997-B01 (the full form)
    • J97B01 (the packed version of the full form)
    • B01 (the abbreviated form)